Camarillo, CA

10:07 PM PST on February 22, 2017 (GMT -0800)
Camarillo

Weather History for KCMA - January, 2013

Change the Weather History Date:

Friday, January 25, 2013

  Actual Average Record
Temperature  
Mean Temperature 62 °F 54 °F  
Max Temperature 65 °F 66 °F 86 °F (2003)
Min Temperature 59 °F 43 °F 32 °F (1966)
Degree Days  
Heating Degree Days 3 11  
Month to date heating degree days 234 275  
Since 1 July heating degree days 780 956  
Cooling Degree Days 0 0  
Month to date cooling degree days 20 0  
Year to date cooling degree days 20 0  
Growing Degree Days 12 (Base 50)    
Moisture  
Dew Point 53 °F    
Average Humidity 70    
Maximum Humidity 87    
Minimum Humidity 52    
Precipitation  
Precipitation 0.18 in 0.04 in 3.03 in (1956)
Month to date precipitation 0.88 3.10  
Year to date precipitation 0.88 3.10  
Since 1 July precipitation 3.59  
Sea Level Pressure  
Sea Level Pressure 30.06 in    
Wind  
Wind Speed 8 mph (ENE)    
Max Wind Speed 18 mph    
Max Gust Speed 22 mph    
Visibility 9 miles    
Events Rain    
T = Trace of Precipitation, MM = Missing Value Source: NWS Daily Summary

Daily Weather History Graph

Daily Weather History Graph

Search for Another Location

Airport or City:

Trip Planner

Search our weather history database for the weather conditions in past years. The results will help you decide how hot, cold, wet, or windy it might be!

Date:

Astronomy

Jan. 25, 2013 Rise Set
Actual Time 6:57 AM PST 5:19 PM PST
Civil Twilight 6:31 AM PST 5:46 PM PST
Nautical Twilight 6:01 AM PST 6:16 PM PST
Astronomical Twilight 5:31 AM PST 6:46 PM PST
Moon 4:21 PM PST (1/25) 5:40 AM PST (1/25)
Length of Visible Light 11h 15m
Length of Day
10h 22m
Waxing Gibbous, 98% of the Moon is Illuminated
Jan 25
Waxing Gibbous
Jan 26
Full
Feb 3
Last Quarter
Feb 9
New
Feb 17
First Quarter

Hourly Weather History & Observations

Time (PST) Temp. Dew Point Humidity Pressure Visibility Wind Dir Wind Speed Gust Speed Precip Events Conditions
12:55 AM 61.0 °F 54.0 °F 78% 30.14 in 10.0 mi ENE 11.5 mph - 0.00 in   Overcast
1:55 AM 62.1 °F 53.1 °F 72% 30.13 in 10.0 mi East 10.4 mph - N/A   Overcast
2:55 AM 62.1 °F 52.0 °F 70% 30.11 in 10.0 mi East 11.5 mph - N/A   Mostly Cloudy
3:55 AM 62.1 °F 52.0 °F 70% 30.08 in 10.0 mi NE 8.1 mph - N/A   Clear
4:55 AM 61.0 °F 52.0 °F 72% 30.08 in 10.0 mi NE 6.9 mph - N/A   Overcast
5:55 AM 63.0 °F 50.0 °F 63% 30.08 in 10.0 mi East 12.7 mph - N/A   Overcast
6:55 AM 63.0 °F 48.9 °F 60% 30.09 in 10.0 mi East 8.1 mph - N/A   Overcast
7:55 AM 64.0 °F 46.9 °F 54% 30.10 in 10.0 mi East 6.9 mph - N/A   Overcast
8:55 AM 64.9 °F 46.9 °F 52% 30.12 in 10.0 mi ENE 10.4 mph 20.7 mph N/A   Overcast
9:55 AM 64.9 °F 48.9 °F 56% 30.13 in 10.0 mi ENE 12.7 mph - N/A   Overcast
11:55 AM 60.1 °F 55.0 °F 83% 30.12 in 2.5 mi NE 6.9 mph - 0.03 in Rain Light Rain
12:16 PM 60.8 °F 55.4 °F 82% 30.07 in 4.0 mi ENE 8.1 mph - 0.00 in Rain Light Rain
12:55 PM 63.0 °F 55.0 °F 75% 30.06 in 4.0 mi ENE 16.1 mph - 0.00 in   Haze
1:50 PM 64.4 °F 53.6 °F 68% 30.02 in 10.0 mi ENE 13.8 mph - N/A   Overcast
1:55 PM 64.0 °F 54.0 °F 70% 30.04 in 10.0 mi ENE 13.8 mph - N/A   Overcast
2:55 PM 64.0 °F 53.1 °F 67% 30.04 in 10.0 mi East 12.7 mph - N/A   Overcast
3:55 PM 61.0 °F 55.0 °F 81% 30.02 in 7.0 mi East 9.2 mph - 0.01 in Rain Light Rain
4:55 PM 62.1 °F 55.0 °F 78% 30.01 in 10.0 mi ENE 5.8 mph - 0.00 in Rain Light Rain
5:55 PM 61.0 °F 55.0 °F 81% 30.03 in 6.0 mi WNW 4.6 mph - 0.01 in Rain Light Rain
6:55 PM 60.1 °F 55.0 °F 83% 30.03 in 10.0 mi NW 5.8 mph - 0.01 in   Mostly Cloudy
7:55 PM 59.0 °F 55.9 °F 90% 30.02 in 10.0 mi Calm Calm - 0.00 in   Overcast
8:55 PM 59.0 °F 55.0 °F 87% 30.00 in 10.0 mi West 5.8 mph - 0.00 in   Overcast
9:55 PM 60.1 °F 55.0 °F 83% 30.01 in 10.0 mi NE 3.5 mph - 0.00 in Rain Light Rain
10:55 PM 59.0 °F 55.0 °F 87% 30.01 in 10.0 mi East 3.5 mph - 0.04 in Rain Light Rain
11:55 PM 59.0 °F 55.9 °F 90% 30.00 in 3.0 mi Calm Calm - 0.07 in Rain Rain